Location: Chaumontel
(49.1247°N, 2.4324°E)
Time: 08:24:50
(UTC+00:00)

Cosmos 2278 Rocket - Pass Details

Date: 03 February 2023
Orbit: 841 x 845 km, 71.0° (Epoch: 24 March)

Event Time Altitude Azimuth Distance (km) Brightness Sun altitude
Rises 19:54:42 0° 332° (NNW) 3,417 5.9 -30.3°
Reaches altitude 10° 19:57:10 10° 334° (NNW) 2,477 5.0 -30.7°
Enters shadow 20:00:54 42° 344° (NNW) 1,190 3.0 -31.3°
